Погода в Бресте

Погода в Бресте : погода сейчас, прогноз погоды и архив. Всё, что Вы хотите узнать о погоде в Бресте!

Поиск расширенной информации на нашем сайте:

Полезная информация: Колодец унифицированный ВГ 12 купить заказать Колодец унифицированный 12.

Другие новости

Новости СМИ2

Главная страница сайта

Новости сайта

02.10.2013

Напоминаем, что на нашем новом сайте вы можете получить высокодетализированные прогнозы погоды по пунктам России, СНГ и мира (включающие важные для авиации метеовеличины, такие как направление и скорость ветра, видимость, явления погоды, количество и форма облачности, нижняя и верхняя граница облачности), а также ознакомиться с разнообразными материалами по авиационной метеорологии и подборкой полезных ссылок на эту тему.

Сайт Метеоцентр.Азия посвящён разработке технологий оптимизации авиаметеорологического обслуживания, включая проектирование и перспективное создание нескольких автоматизированных авиаметеорологических систем:
- система выпуска высокодетальных прогностических карт явлений погоды для нижнего воздушного пространства по России и ближнему зарубежью;
- система верификации прогнозов TAF (выпускаемых синоптиками официальных АМСГ РФ и ближнего зарубежья) и AUTOTAF (выпускаемых сайтом Метеоцентр.Азия) - выявление ошибок, онлайн-сопоставление с фактической погодой METAR, автоматическое внесение коррективов в прогнозы при резком отклонении фактической погоды от прогноза, подсчёт оправдываемости прогнозов по элементам и в целом;
- система обработки, анализа и отображения авиаметеорологической информации для применения провайдерами метеорологической информации.

Рекомендуем: Подробная информация K504S у нас на сайте.

Погода в Бресте - сегодня

Время (UTC), дата Ветер
(°,м/с) 
Видим.   Явления Облачность Т
(°С)
Тd
(°С)
f(%) Тe
(°С)
Pmin
(гПа)
dP
(гПа)
Po
(мм)
O2
(г/м3)
Тmin Tmax R s Состояние
почвы
12 22.04.17 250 (З) 6-11{16}  30000 м    8/8 600 м кучево-дожд. 
[Cb calv]
+9.2 -2.7 43 +7  1009.7  0.2  744  290           
15 22.04.17 260 (З) 6-13{13}  30000 м    8/8 600 м средняя 
[Ac trans]
+9.4 -5.3 35 +8  1009.5  -0.2  744  290           
18 22.04.17 290 (З) 5-11{13}  15000 м  слаб. ливневой дождь  9/9 600 м кучево-дожд. 
[Cb cap]
+5.6 -0.9 63 +4  1010.3  0.6  744  294    +10.2  0.0     
21 22.04.17 250 (З) 2{11}  30000 м    ясно 
+3.2 -0.8 75 +3  1010.5  744  297           
00 23.04.17 240 (ЮЗ) 30000 м    ясно 
+1.7 -0.9 83 +1  1010.2  -0.4  744  298           
03 23.04.17 240 (ЮЗ) 15000 м    3/3 600 м 
[Sc]
+0.9 -0.7 89 1010.2  -0.1  744  299           
06 23.04.17 280 (З) 12000 м  слаб. дождь  10/10 240 м 
[Sc]
+3.1 +0.8 85 +2  1011  745  297  +0.6    0.1     
09 23.04.17 290 (З) 30000 м  {дождь}  8/8 700 м 
[Cu med, cong]
+6.8 +0.9 66 +6  1011.5  0.7  745  293           
12 23.04.17 300 (СЗ) 4{13}  30000 м  {ливн. осадки, дождь}  9/9 600 м кучево-дожд. 
[Cb calv]
+6.5 -0.6 60 +5  1012.1  0.6  746  294           
15 23.04.17 290 (З) 3{10}  30000 м  {ливн. осадки}  8/8 600 м кучево-дожд. 
[Cb calv]
+6.6 -1.3 57 +6  1013  0.9  746  294      0.6     
18 23.04.17 тихо () {11}  30000 м  {ливн. осадки}  3/3 600 м кучево-дожд. 
[Cb calv]
+4.3 -1.3 67 +4  1014.2  747  297    +8.1  0.6     
21 23.04.17 тихо ()   30000 м    3/0 средняя 
[Ac trans]
+1.7 -0.7 84 +2  1015.4  748  300           
00 24.04.17 240 (ЮЗ) 30000 м    9/9 1000 м 
[Sc]
+1.9 -0.8 82 +3  1015.6  0.2  748  299           
03 24.04.17 270 (З) 12000 м    10/10 210 м 
[St]
+1.3 -0.2 90 +1  1015.3  -0.3  748  300           
06 24.04.17 270 (З) 10 км  слаб. дождь  10/10 210 м 
[Sc]
+2.7 +1.1 89 +2  1016.2  749  298  +0.7    0.3     
09 24.04.17 270 (З) 30000 м  {дождь}  8/8 720 м 
[Cu med, cong]
+5.6 -0.3 66 +5  1016.7  0.7  749  296           
12 24.04.17 260 (З) 30000 м  {ливн. осадки, дождь}  6/6 1350 м 
[Cu med, cong]
+8.1 -2.8 46 +7  1016.1  -0.5  749  293           
15 24.04.17 260 (З) 5{10}  30000 м    6/6 1500 м 
[Sc]
+8.8 -6.2 34 +7  1015.2  -0.8  748  293      0.0     
18 24.04.17 200 (Ю) 15000 м    4/0 средняя 
[As op]
+7.2 -4.3 44 +8  1015.2  -0.1  748  294    +8.9  0.0     
21 24.04.17 190 (Ю) 30000 м    8/8 1500 м 
[Sc]
+5.9 -2.5 55 +6  1014.8  -0.5  748  295           
00 25.04.17 170 (Ю) 20000 м    10/0 средняя 
[Ac As]
+5.2 -1.3 63 +5  1013.4  -1.4  747  295           
03 25.04.17 170 (Ю) 30000 м    10/0 средняя 
[Ac As]
+4.8 -1.7 63 +4  1011.5  -1.9  745  295           
06 25.04.17 180 (Ю) 15000 м    10/0 средняя 
[Ac As]
+6.9 -0.6 59 +6  1010.7  -0.7  745  293  +4.6         
09 25.04.17 180 (Ю) 15000 м    10/0 средняя 
[Ac As]
+13 +1.3 45 +12  1008.3  -1.9  743  286           
12 25.04.17 200 (Ю) 5-11{11}  20000 м    8/3 1000 м средняя 
[Cu hum|As op]
+17.2 +2.4 37 +17  1005.9  -2.1  742  281           
Время (UTC), дата Ветер
(°,м/с) 
Видим.   Явления Облачность Т
(°С)
Тd
(°С)
f(%) Тe
(°С)
Pmin
(гПа)
dP
(гПа)
Po
(мм)
O2
(г/м3)
Тmin Tmax R s Состояние
почвы

Для получения пояснительной информации подведите курсор к названию столбца.

ПОГОДА в Бресте - архив

Всё, что Вы хотите узнать о погоде в Бресте - удобно и подробно!

Выберите нужную дату (начиная с 1 января 2015* года) и нажмите кнопку "Найти".
Будут отображены архивные сводки погоды по пункту Брест, начиная с указанной даты.


Отображать данные в формате CSV (для использования в таблицах Excel)


Внимание! Наш архив погоды предназначен исключительно для личного некоммерческого использования в познавательных целях. Если Вам необходимы официальные справки о состоянии погоды (для производственных, юридических, коммерческих и т.п. целей), обращайтесь в органы Росгидромета.

*Примечание: данная дата относится к архиву по метеостанциям СССР (Россия, СНГ, Балтия).
Архив по метеостанциям Зарубежной Европы и Азии (кроме Китая) хранится 10 дней, по другим регионам земного шара (Китай, Африка, Америка, Австралия, Океания) - 1 день.

Брест - район местоположения метеостанции


Название, широта, долгота, высота метеостанции:
Брест 52.1°ш. 23.7°д. 146 м над ур. моря [Беларусь]

Дополнительная информация

В oтличие oт бoльшинства пoгoдных сайтoв мы публикуем пoдрoбную метеoинфoрмацию в детальнoм прoфессиoнальнoм фoрмате.

Характеристики температуры и влажнoсти вoздуха измеряются на высoте 2 м в тени вдали oт зданий и деревьев.
Скoрoсть ветра измеряется на высoте 10 м (на урoвне рoста челoвека скoрoсть ветра ниже в 1.5-2 раза). Если метеoстанция нахoдится в гoрoде или в лесу, тo скoрoсть ветра занижена на 2-4 м/с пo сравнению с oткрытым местoм. Скoрoсть ветра над акватoриями крупных рек и oзёр, а также на вершинах хoлмoв на 2-5 м/с выше, чем в oбычных услoвиях.
Атмoсфернoе давление в разных тoчках местнoсти мoжет значительнo oтличаться oт давления на метеoстанции, в зависимoсти oт услoвий рельефа (при пoдъёме на 10 м давление пoнижается примернo на 1 мм рт.ст.).